1485068400.16,50666,8.44,74254.3,-5.75,-40.65,-40.85,0,*5A
1485068401.39,50667,8.44,74258.5,-5.75,-40.53,-40.85,0,*5E
1485068402.63,50668,8.44,74254.8,-5.73,-40.73,-40.91,0,*50
1485068403.86,50669,8.44,74256.3,-5.75,-40.47,-40.85,0,*55
1485068405.07,50670,8.44,74256.3,-5.75,-40.53,-40.91,0,*5D
1485068406.33,50671,8.44,74254.5,-5.73,-40.65,-40.85,0,*5A
1485068407.56,50672,8.44,74256.0,-5.75,-40.65,-40.85,0,*5F
1485068408.79,50673,8.44,74258.3,-5.75,-40.53,-40.85,0,*5B
1485068409.99,50674,8.44,74256.3,-5.75,-40.53,-40.73,0,*55
1485068411.2,50675,8.44,74256.5,-5.75,-40.47,-40.53,0,*53
1485068412.43,50676,8.44,74254.3,-5.75,-40.53,-40.85,0,*5E
1485068413.66,50677,8.44,74256.3,-5.75,-40.29,-40.65,0,*5C
1485068414.89,50678,8.44,74258.0,-5.75,-40.29,-40.53,0,*56
1485068416.12,50679,8.44,74256.0,-5.75,-40.53,-40.85,0,*51
1485068417.33,50680,8.44,74258.5,-5.75,-40.53,-40.91,0,*52
1485068418.56,50681,8.44,74252.3,-5.75,-40.53,-40.85,0,*56
1485068419.77,50682,8.44,74254.3,-5.75,-40.47,-40.65,0,*5E
1485068420.98,50683,8.44,74254.8,-5.75,-40.47,-40.53,0,*5A
1485068422.24,50684,8.44,74258.0,-5.77,-40.35,-40.59,0,*50
1485068423.49,50685,8.44,74254.0,-5.77,-40.35,-40.59,0,*51
1485068424.77,50686,8.44,74256.5,-5.77,-40.59,-40.79,0,*5A
1485068426.03,50687,8.44,74256.5,-5.77,-40.59,-40.91,0,*5D
1485068427.27,50688,8.44,74258.5,-5.77,-40.73,-40.91,0,*5A
1485068428.5,50689,8.44,74260.8,-5.77,-40.53,-40.91,0,*59
1485068429.73,50690,8.44,74256.0,-5.77,-40.35,-40.53,0,*5F
1485068430.97,50691,8.44,74256.8,-5.77,-40.35,-40.53,0,*5E
1485068432.25,50692,8.44,74258.0,-5.77,-40.41,-40.79,0,*56
1485068433.46,50693,8.44,74260.3,-5.79,-40.35,-40.73,0,*50
1485068434.72,50694,8.44,74252.3,-5.77,-40.41,-40.73,0,*5A
1485068435.98,50695,8.44,74254.3,-5.77,-40.59,-40.91,0,*5E
1485068437.27,50696,8.44,74254.8,-5.77,-40.41,-40.59,0,*50
1485068438.53,50697,8.44,74256.3,-5.77,-40.41,-40.73,0,*59
1485068439.76,50698,8.44,74250.3,-5.77,-40.35,-40.73,0,*55
1485068441.05,50699,8.44,74256.3,-5.77,-40.41,-40.59,0,*5F
1485068442.3,50700,8.44,74254.8,-5.79,-40.59,-40.79,0,*5B
1485068443.53,50701,8.44,74252.3,-5.77,-40.35,-40.53,0,*56
1485068444.79,50702,8.44,74254.3,-5.77,-40.41,-40.73,0,*54
1485068446.04,50703,8.44,74256.5,-5.77,-40.53,-40.79,0,*5C
1485068447.33,50704,8.44,74250.8,-5.77,-40.41,-40.59,0,*5A
1485068448.58,50705,8.44,74256.3,-5.77,-40.53,-40.79,0,*5A
1485068449.81,50706,8.44,74256.8,-5.79,-40.35,-40.59,0,*55
1485068451.09,50707,8.5,74256.8,-5.77,-40.29,-40.59,0,*57
1485068452.33,50708,8.44,74252.0,-5.77,-40.53,-40.91,0,*51
1485068453.57,50709,8.44,74258.8,-5.77,-40.53,-40.79,0,*56
1485068454.83,50710,8.44,74252.5,-5.77,-40.41,-40.73,0,*57
1485068456.07,50711,8.44,74256.0,-5.79,-40.29,-40.53,0,*54
1485068457.33,50712,8.44,74258.5,-5.77,-40.41,-40.73,0,*55
1485068458.56,50713,8.44,74256.8,-5.79,-40.41,-40.73,0,*5A
1485068459.82,50714,8.44,74258.3,-5.77,-40.53,-40.59,0,*58
1485068461.05,50715,8.44,74258.0,-5.79,-40.35,-40.59,0,*57
1485068462.31,50716,8.5,74258.8,-5.77,-40.29,-40.53,0,*5D
1485068463.57,50717,8.44,74252.5,-5.79,-40.41,-40.59,0,*56
1485068464.81,50718,8.44,74254.5,-5.79,-40.35,-40.59,0,*5A
1485068466.06,50719,8.5,74256.3,-5.77,-40.53,-40.79,0,*57
1485068467.31,50720,8.5,74258.8,-5.79,-40.59,-40.79,0,*59
1485068468.53,50721,8.44,74258.3,-5.79,-40.53,-40.79,0,*52
1485068469.82,50722,8.44,74256.8,-5.77,-40.41,-40.59,0,*5E
1485068471.04,50723,8.44,74252.5,-5.79,-40.15,-40.35,0,*5A
1485068472.31,50724,8.44,74256.8,-5.79,-40.09,-40.41,0,*53
1485068473.56,50725,8.44,74254.3,-5.77,-40.35,-40.41,0,*53
1485068474.85,50726,8.44,74258.0,-5.77,-40.41,-40.59,0,*5A
1485068476.08,50727,8.44,74258.3,-5.77,-40.35,-40.73,0,*50
1485068477.34,50728,8.44,74252.5,-5.77,-40.41,-40.73,0,*5C
1485068478.6,50729,8.44,74256.3,-5.77,-40.41,-40.73,0,*5D
1485068479.84,50730,8.44,74252.0,-5.79,-40.41,-40.73,0,*5B
1485068481.07,50731,8.44,74254.8,-5.77,-40.35,-40.53,0,*55
1485068482.34,50732,8.44,74256.8,-5.79,-40.41,-40.59,0,*51
1485068483.57,50733,8.44,74256.3,-5.77,-40.35,-40.53,0,*57
1485068484.81,50734,8.44,74254.5,-5.79,-40.35,-40.59,0,*54
1485068486.04,50735,8.44,74254.0,-5.79,-40.29,-40.53,0,*52
1485068487.28,50736,8.44,74254.3,-5.79,-40.41,-40.73,0,*5D
1485068488.53,50737,8.44,74252.3,-5.77,-40.29,-40.53,0,*5E
1485068489.76,50738,8.44,74252.0,-5.77,-40.35,-40.73,0,*5E
1485068490.99,50739,8.44,74254.0,-5.77,-40.35,-40.53,0,*5D
1485068492.28,50740,8.44,74256.3,-5.77,-40.41,-40.59,0,*5A
1485068493.49,50741,8.5,74258.0,-5.79,-40.53,-40.73,0,*5E
1485068494.69,50742,8.44,74250.8,-5.79,-40.35,-40.53,0,*5F
1485068495.95,50743,8.5,74258.8,-5.79,-40.41,-40.79,0,*55
1485068497.19,50744,8.5,74258.3,-5.79,-40.59,-40.73,0,*51
1485068498.43,50745,8.5,74256.0,-5.77,-40.53,-40.79,0,*5E
1485068499.69,50746,8.44,74254.5,-5.77,-40.41,-40.73,0,*54
1485068500.9,50747,8.5,74258.3,-5.79,-40.35,-40.53,0,*5A
1485068502.11,50748,8.5,74256.0,-5.79,-40.35,-40.53,0,*55
1485068503.31,50749,8.5,74258.3,-5.83,-40.47,-40.65,0,*51
1485068504.57,50750,8.44,74254.8,-5.83,-40.21,-40.59,0,*56
1485068505.83,50751,8.44,74254.0,-5.79,-40.41,-40.79,0,*56
1485068507.06,50752,8.44,74254.3,-5.79,-40.41,-40.73,0,*5F
1485068508.32,50753,8.5,74258.3,-5.79,-40.59,-40.79,0,*5D
1485068509.58,50754,8.5,74252.0,-5.83,-40.59,-40.85,0,*5C
1485068510.81,50755,8.44,74252.5,-5.83,-40.65,-40.97,0,*51
1485068512.06,50756,8.5,74256.5,-5.85,-40.65,-40.85,0,*57
1485068513.29,50757,8.5,74256.3,-5.83,-40.41,-40.65,0,*58
1485068514.55,50758,8.44,74254.0,-5.85,-40.47,-40.59,0,*58
1485068515.83,50759,8.5,74252.3,-5.85,-40.59,-40.85,0,*57
1485068517.09,50760,8.44,74252.3,-5.83,-40.41,-40.79,0,*51
1485068518.29,50761,8.5,74256.0,-5.83,-40.47,-40.65,0,*5B
1485068519.58,50762,8.5,74252.3,-5.85,-40.41,-40.85,0,*56
1485068520.85,50763,8.5,74254.5,-5.85,-40.59,-40.79,0,*5D
1485068522.05,50764,8.44,74252.8,-5.83,-40.47,-40.65,0,*5E
1485068523.31,50765,8.44,74252.3,-5.85,-40.41,-40.65,0,*5F
1485068524.59,50766,8.5,74252.5,-5.85,-40.21,-40.41,0,*5C
1485068525.87,50767,8.5,74258.0,-5.85,-40.41,-40.59,0,*52
1485068527.13,50768,8.5,74254.8,-5.85,-40.41,-40.65,0,*52
1485068528.42,50769,8.5,74254.5,-5.85,-40.41,-40.59,0,*5C
1485068529.67,50770,8.5,74258.0,-5.85,-40.47,-40.59,0,*52
1485068530.9,50771,8.5,74260.0,-5.85,-40.47,-40.65,0,*5C
1485068532.12,50772,8.44,74254.0,-5.85,-40.47,-40.65,0,*5F
1485068533.4,50773,8.44,74254.8,-5.85,-40.59,-40.79,0,*5C
1485068534.66,50774,8.5,74252.8,-5.85,-40.35,-40.59,0,*53
1485068535.89,50775,8.5,74254.0,-5.83,-40.35,-40.59,0,*54
1485068537.14,50776,8.5,74258.0,-5.85,-40.35,-40.59,0,*51
1485068538.4,50777,8.5,74258.5,-5.85,-40.41,-40.65,0,*5C
1485068539.65,50778,8.5,74256.8,-5.85,-40.47,-40.79,0,*58
1485068540.94,50779,8.5,74256.0,-5.85,-40.41,-40.59,0,*5D
1485068542.16,50780,8.5,74256.3,-5.85,-40.47,-40.65,0,*52
1485068543.41,50781,8.5,74254.8,-5.85,-40.47,-40.79,0,*5E
1485068544.64,50782,8.5,74252.8,-5.85,-40.47,-40.65,0,*50
1485068545.92,50783,8.5,74254.5,-5.85,-40.41,-40.79,0,*5A
1485068547.19,50784,8.5,74254.5,-5.85,-40.59,-40.79,0,*54
1485068548.48,50785,8.5,74252.0,-5.85,-40.41,-40.59,0,*5E
1485068549.71,50786,8.44,74252.5,-5.87,-40.29,-40.65,0,*5E
1485068550.94,50787,8.44,74252.5,-5.87,-40.41,-40.65,0,*51
1485068552.18,50788,8.5,74256.0,-5.87,-40.41,-40.65,0,*5E
1485068553.41,50789,8.5,74254.5,-5.87,-40.29,-40.65,0,*51
1485068554.64,50790,8.5,74254.3,-5.87,-40.41,-40.65,0,*57
1485068555.88,50791,8.5,74252.3,-5.87,-40.53,-40.85,0,*5B
1485068557.11,50792,8.5,74258.3,-5.87,-40.65,-40.85,0,*5D
1485068558.34,50793,8.5,74254.0,-5.87,-40.41,-40.73,0,*53
1485068559.58,50794,8.44,74252.3,-5.87,-40.47,-40.85,0,*5B
1485068560.83,50795,8.5,74258.8,-5.89,-40.29,-40.65,0,*52
1485068562.07,50796,8.5,74256.5,-5.87,-40.41,-40.65,0,*51
1485068563.31,50797,8.5,74254.5,-5.87,-40.41,-40.73,0,*57
1485068564.54,50798,8.5,74252.3,-5.87,-40.41,-40.73,0,*58
1485068565.77,50799,8.5,74258.8,-5.87,-40.29,-40.73,0,*57
1485068566.98,50800,8.5,74254.3,-5.87,-40.47,-40.65,0,*57
1485068568.24,50801,8.44,74254.3,-5.89,-40.41,-40.53,0,*5B
1485068569.48,50802,8.5,74252.8,-5.87,-40.41,-40.65,0,*53
1485068570.71,50803,8.5,74254.5,-5.87,-40.29,-40.47,0,*5C
1485068571.94,50804,8.5,74254.8,-5.87,-40.09,-40.47,0,*59
1485068573.17,50805,8.5,74254.5,-5.87,-40.29,-40.53,0,*5F
1485068574.41,50806,8.5,74252.8,-5.87,-40.41,-40.73,0,*50
1485068575.62,50807,8.5,74254.8,-5.87,-40.47,-40.73,0,*57
1485068576.87,50808,8.5,74252.3,-5.89,-40.53,-40.85,0,*5A
1485068578.1,50809,8.5,74254.8,-5.89,-40.65,-40.73,0,*57
1485068579.3,50810,8.5,74256.5,-5.87,-40.47,-40.65,0,*56
1485068580.53,50811,8.5,74254.5,-5.87,-40.29,-40.65,0,*5F
1485068581.79,50812,8.5,74254.5,-5.89,-40.41,-40.73,0,*5B
1485068583.02,50813,8.5,74254.8,-5.89,-40.53,-40.73,0,*59
1485068584.25,50814,8.5,74256.0,-5.89,-40.47,-40.73,0,*5B
1485068585.51,50815,8.5,74254.0,-5.89,-40.41,-40.73,0,*5C
1485068586.71,50816,8.5,74254.5,-5.87,-40.53,-40.73,0,*52
1485068587.94,50817,8.44,74248.0,-5.89,-40.47,-40.65,0,*5F
1485068589.2,50818,8.5,74258.3,-5.89,-40.41,-40.65,0,*56
1485068590.45,50819,8.5,74258.0,-5.89,-40.29,-40.65,0,*59
1485068591.7,50820,8.5,74254.3,-5.89,-40.29,-40.65,0,*53
1485068592.93,50821,8.5,74256.8,-5.89,-40.47,-40.65,0,*5A
1485068594.19,50822,8.5,74258.5,-5.89,-40.41,-40.65,0,*5F
1485068595.45,50823,8.5,74258.3,-5.89,-40.41,-40.65,0,*5E
1485068596.71,50824,8.5,74254.8,-5.89,-40.41,-40.53,0,*5C
1485068597.97,50825,8.5,74254.0,-5.89,-40.41,-40.65,0,*58
1485068599.23,50826,8.5,74256.8,-5.89,-40.41,-40.53,0,*5E
1485068600.48,50827,8.5,74254.8,-5.89,-40.21,-40.53,0,*59
1485068601.72,50828,8.5,74256.8,-5.89,-40.47,-40.65,0,*53
1485068602.97,50829,8.5,74256.0,-5.89,-40.29,-40.53,0,*5F
1485068604.2,50830,8.5,74252.5,-5.87,-40.41,-40.47,0,*52
1485068605.44,50831,8.5,74254.3,-5.87,-40.41,-40.65,0,*53
1485068606.67,50832,8.5,74258.5,-5.89,-40.47,-40.73,0,*5F
1485068607.92,50833,8.5,74252.3,-5.89,-40.29,-40.65,0,*51
1485068609.18,50834,8.5,74258.0,-5.89,-40.29,-40.53,0,*53
1485068610.44,50835,8.5,74258.8,-5.89,-40.41,-40.73,0,*5E
1485068611.7,50836,8.5,74254.3,-5.89,-40.41,-40.65,0,*5A
1485068612.93,50837,8.5,74254.3,-5.91,-40.29,-40.53,0,*59
1485068614.16,50838,8.5,74256.5,-5.91,-40.35,-40.59,0,*51
1485068615.4,50839,8.5,74254.8,-5.91,-40.47,-40.59,0,*55
1485068616.66,50840,8.5,74258.8,-5.91,-40.29,-40.59,0,*53
1485068617.86,50841,8.5,74252.0,-5.91,-40.53,-40.73,0,*57
1485068619.06,50842,8.5,74254.8,-5.91,-40.53,-40.73,0,*54
1485068620.26,50843,8.5,74254.5,-5.91,-40.53,-40.73,0,*55
1485068621.49,50844,8.5,74252.8,-5.91,-40.47,-40.79,0,*5D
1485068622.73,50845,8.5,74256.8,-5.91,-40.47,-40.59,0,*5E
1485068623.98,50846,8.5,74256.0,-5.91,-40.59,-40.79,0,*50
1485068625.27,50847,8.5,74252.5,-5.93,-40.79,-40.85,0,*52
1485068626.47,50848,8.5,74252.3,-5.91,-40.53,-40.73,0,*5E
1485068627.67,50849,8.5,74256.0,-5.91,-40.53,-40.73,0,*5F
1485068628.88,50850,8.5,74258.8,-5.91,-40.47,-40.73,0,*52
1485068630.1,50851,8.5,74256.5,-5.91,-40.15,-40.53,0,*56
1485068631.36,50852,8.5,74252.8,-5.93,-40.41,-40.65,0,*53
1485068632.6,50853,8.5,74254.3,-5.91,-40.47,-40.59,0,*59
1485068633.81,50854,8.5,74254.5,-5.91,-40.47,-40.73,0,*56
1485068635.01,50855,8.5,74258.0,-5.91,-40.53,-40.73,0,*52
1485068636.27,50856,8.5,74254.5,-5.93,-40.65,-40.85,0,*5F
1485068637.55,50857,8.5,74254.8,-5.93,-40.59,-40.79,0,*52
1485068638.75,50858,8.5,74254.8,-5.91,-40.47,-40.73,0,*5A
1485068639.98,50859,8.5,74254.0,-5.91,-40.53,-40.79,0,*54
1485068641.23,50860,8.5,74258.3,-5.93,-40.53,-40.79,0,*5C
1485068642.48,50861,8.5,74256.3,-5.93,-40.53,-40.79,0,*5D
1485068643.71,50862,8.5,74256.8,-5.93,-40.53,-40.65,0,*53
1485068644.97,50863,8.5,74258.5,-5.93,-40.41,-40.65,0,*51
1485068646.23,50864,8.5,74252.8,-5.93,-40.41,-40.65,0,*56
1485068647.52,50865,8.5,74256.5,-5.93,-40.41,-40.59,0,*58
1485068648.79,50866,8.5,74256.0,-5.93,-40.35,-40.59,0,*58
1485068650.04,50867,8.5,74254.3,-5.93,-40.53,-40.85,0,*58
1485068651.29,50868,8.5,74256.0,-5.93,-40.53,-40.79,0,*54
1485068652.52,50869,8.5,74256.3,-5.91,-40.53,-40.79,0,*57
1485068653.74,50870,8.5,74254.0,-5.91,-40.53,-40.79,0,*5F
1485068655.02,50871,8.5,74254.0,-5.93,-40.59,-40.79,0,*56
1485068656.31,50872,8.5,74254.8,-5.93,-40.59,-40.85,0,*56
1485068657.58,50873,8.5,74252.8,-5.93,-40.41,-40.65,0,*50
1485068658.79,50874,8.5,74258.3,-5.97,-40.53,-40.79,0,*5D
1485068660.02,50875,8.5,74254.3,-5.95,-40.53,-40.79,0,*5E
1485068661.28,50876,8.5,74256.8,-5.95,-40.41,-40.79,0,*5E
1485068662.52,50877,8.5,74254.0,-5.95,-40.35,-40.59,0,*5E
1485068663.73,50878,8.5,74254.0,-5.95,-40.35,-40.65,0,*5E
1485068664.99,50879,8.5,74254.0,-5.95,-40.79,-40.85,0,*59
1485068666.26,50880,8.5,74254.5,-5.95,-40.59,-40.97,0,*5E
1485068667.53,50881,8.5,74258.8,-5.95,-40.59,-40.85,0,*5C
1485068668.74,50882,8.5,74256.0,-5.95,-40.35,-40.65,0,*5B
1485068669.94,50883,8.5,74252.8,-5.95,-40.53,-40.65,0,*5A
1485068671.21,50884,8.5,74254.5,-5.95,-40.41,-40.59,0,*51
1485068672.41,50885,8.5,74258.8,-5.95,-40.53,-40.65,0,*5C
1485068673.62,50886,8.5,74258.5,-5.95,-40.53,-40.65,0,*5F
1485068674.85,50887,8.5,74256.8,-5.97,-40.79,-41.03,0,*55
1485068676.09,50888,8.5,74256.3,-5.95,-40.85,-41.03,0,*5B
1485068677.34,50889,8.5,74254.8,-5.97,-40.59,-40.79,0,*55
1485068678.57,50890,8.5,74254.5,-5.95,-40.65,-40.97,0,*50
1485068679.83,50891,8.5,74254.0,-5.95,-40.59,-40.79,0,*5E
1485068681.09,50892,8.5,74256.8,-5.97,-40.59,-40.85,0,*5C
1485068682.31,50893,8.5,74256.0,-5.97,-40.53,-40.79,0,*54
1485068683.5,50894,8.5,74256.3,-5.97,-40.53,-40.65,0,*5E
1485068684.72,50895,8.5,74256.5,-5.97,-40.53,-40.79,0,*52
1485068685.98,50896,8.5,74258.8,-5.97,-40.41,-40.79,0,*52
1485068687.19,50897,8.5,74254.3,-5.97,-40.53,-40.79,0,*50
1485068688.42,50898,8.5,74252.8,-5.97,-40.53,-40.85,0,*5C
1485068689.68,50899,8.5,74258.5,-5.99,-40.47,-40.85,0,*56
1485068690.9,50900,8.5,74252.8,-5.97,-40.65,-40.85,0,*59
1485068692.1,50901,8.5,74258.0,-5.97,-40.35,-40.65,0,*53
1485068693.32,50902,8.5,74258.3,-5.97,-40.53,-40.79,0,*5D
1485068694.57,50903,8.5,74254.5,-5.97,-40.59,-40.79,0,*56
1485068695.85,50904,8.5,74256.0,-5.99,-40.59,-40.85,0,*5C
1485068697.06,50905,8.5,74252.5,-6.01,-40.73,-40.91,0,*52
1485068698.26,50906,8.5,74258.0,-6.01,-40.65,-40.91,0,*56
1485068699.52,50907,8.5,74256.5,-5.99,-40.47,-40.85,0,*50
1485068700.77,50908,8.5,74258.0,-5.99,-40.47,-40.85,0,*5F
1485068702.05,50909,8.5,74258.3,-5.99,-40.59,-40.85,0,*51
1485068703.31,50910,8.5,74258.0,-6.01,-40.59,-40.85,0,*5B
1485068704.54,50911,8.5,74254.5,-6.01,-40.47,-40.85,0,*55
1485068705.8,50912,8.5,74256.5,-6.01,-40.59,-40.85,0,*59
1485068707.08,50913,8.5,74254.5,-5.99,-40.59,-40.85,0,*5A
1485068708.29,50914,8.5,74256.0,-6.01,-40.73,-40.91,0,*52
1485068709.51,50915,8.5,74256.5,-5.99,-40.65,-41.03,0,*5C
1485068710.72,50916,8.5,74256.3,-6.01,-40.65,-40.91,0,*57
1485068711.98,50917,8.5,74256.3,-6.01,-40.59,-40.85,0,*5C
1485068713.18,50918,8.5,74254.0,-6.01,-40.47,-40.65,0,*52
1485068714.43,50919,8.5,74254.8,-6.01,-40.29,-40.59,0,*54
1485068715.65,50920,8.5,74258.3,-6.01,-40.21,-40.47,0,*59
1485068716.88,50921,8.5,74256.8,-6.01,-40.41,-40.65,0,*5E
1485068718.1,50922,8.5,74252.8,-6.01,-40.29,-40.47,0,*53
1485068719.33,50923,8.5,74258.0,-6.01,-40.47,-40.59,0,*55
1485068720.59,50924,8.5,74258.3,-6.01,-40.59,-40.85,0,*5C
1485068721.82,50925,8.5,74258.0,-6.01,-40.65,-40.85,0,*52
1485068723.08,50926,8.5,74256.3,-6.01,-40.59,-40.85,0,*5E
1485068724.28,50927,8.5,74254.8,-6.01,-40.47,-40.65,0,*5E
1485068725.48,50928,8.5,74254.0,-6.01,-40.47,-40.73,0,*56
1485068726.68,50929,8.5,74254.5,-6.05,-40.35,-40.73,0,*56
1485068727.91,50930,8.5,74258.0,-6.05,-40.29,-40.65,0,*54
1485068729.13,50931,8.5,74256.3,-6.05,-40.65,-40.79,0,*50
1485068730.34,50932,8.56,74256.0,-6.05,-40.65,-40.91,0,*55
1485068731.55,50933,8.5,74254.5,-6.05,-40.53,-40.91,0,*51
1485068732.75,50934,8.5,74258.3,-6.05,-40.65,-40.91,0,*53
1485068733.96,50935,8.5,74258.3,-6.05,-40.35,-40.53,0,*59
1485068735.16,50936,8.5,74258.0,-6.05,-40.47,-40.65,0,*5A
1485068736.37,50937,8.5,74256.5,-6.05,-40.35,-40.53,0,*5B
1485068737.57,50938,8.5,74256.5,-6.05,-40.35,-40.73,0,*56
1485068738.84,50939,8.5,74258.5,-6.07,-40.53,-40.97,0,*5F
1485068740.12,50940,8.5,74258.5,-6.07,-40.59,-40.97,0,*5B
1485068741.33,50941,8.5,74258.0,-6.05,-40.65,-40.91,0,*51
1485068742.54,50942,8.5,74256.5,-6.05,-40.65,-40.91,0,*52
1485068743.82,50943,8.5,74252.8,-6.07,-40.59,-40.79,0,*58
1485068745.04,50944,8.5,74252.3,-6.05,-40.29,-40.65,0,*57
1485068746.25,50945,8.5,74254.5,-6.05,-40.35,-40.73,0,*5C
1485068747.47,50946,8.5,74256.5,-6.05,-40.15,-40.53,0,*5F
1485068748.74,50947,8.5,74258.5,-6.07,-40.59,-40.79,0,*5C
1485068749.97,50948,8.5,74254.5,-6.05,-40.29,-40.53,0,*5E
1485068751.23,50949,8.5,74254.5,-6.07,-40.53,-40.59,0,*5A
1485068752.46,50950,8.5,74256.0,-6.07,-40.35,-40.73,0,*5A
1485068753.72,50951,8.5,74256.3,-6.07,-40.53,-40.85,0,*52
1485068754.92,50952,8.5,74258.8,-6.05,-40.35,-40.73,0,*5A
1485068756.2,50953,8.56,74256.3,-6.07,-40.21,-40.59,0,*54
1485068757.44,50954,8.5,74258.0,-6.07,-40.35,-40.73,0,*5E
1485068758.64,50955,8.5,74258.5,-6.05,-40.47,-40.65,0,*5F
1485068759.84,50956,8.56,74260.8,-6.05,-40.47,-40.65,0,*5C
1485068761.13,50957,8.5,74256.5,-6.07,-40.21,-40.59,0,*50
1485068762.33,50958,8.56,74256.5,-6.05,-40.47,-40.73,0,*55
1485068763.62,50959,8.56,74256.8,-6.07,-40.59,-40.85,0,*50
1485068764.9,50960,8.5,74258.3,-6.07,-40.59,-40.85,0,*5A
1485068766.13,50961,8.5,74252.3,-6.07,-40.53,-40.73,0,*58
1485068767.41,50962,8.56,74256.5,-6.07,-40.59,-40.79,0,*5B
1485068768.67,50963,8.56,74256.5,-6.07,-40.35,-40.41,0,*5B
1485068769.92,50964,8.5,74256.3,-6.07,-40.53,-40.79,0,*57
1485068771.13,50965,8.5,74256.3,-6.05,-40.15,-40.35,0,*5E
1485068772.39,50966,8.5,74256.5,-6.07,-40.21,-40.53,0,*58
1485068773.65,50967,8.56,74256.8,-6.07,-40.41,-40.53,0,*5F
1485068774.94,50968,8.56,74258.5,-6.07,-40.41,-40.85,0,*5B
1485068776.2,50969,8.5,74254.8,-6.07,-40.53,-40.85,0,*59
1485068777.43,50970,8.5,74256.5,-6.05,-40.29,-40.53,0,*55
1485068778.69,50971,8.5,74256.8,-6.07,-40.73,-40.85,0,*52
1485068779.95,50972,8.56,74256.0,-6.07,-40.73,-40.97,0,*52
1485068781.21,50973,8.5,74256.5,-6.07,-40.21,-40.53,0,*5C
1485068782.49,50974,8.56,74258.0,-6.07,-40.59,-40.85,0,*5F
1485068783.7,50975,8.5,74256.0,-6.05,-40.53,-40.91,0,*53
1485068784.96,50976,8.56,74258.3,-6.07,-40.73,-40.97,0,*56
1485068786.24,50977,8.56,74256.3,-6.07,-40.59,-40.79,0,*5F
1485068787.5,50978,8.5,74254.8,-6.09,-40.59,-40.85,0,*5D
1485068788.73,50979,8.56,74258.3,-6.09,-40.53,-40.79,0,*55
1485068789.98,50980,8.56,74258.5,-6.09,-40.21,-40.59,0,*54
1485068791.21,50981,8.56,74258.5,-6.09,-40.41,-40.73,0,*5B
1485068792.48,50982,8.5,74254.8,-6.09,-40.41,-40.59,0,*50
1485068793.71,50983,8.56,74256.8,-6.09,-40.35,-40.79,0,*50
1485068794.94,50984,8.56,74254.3,-6.09,-40.35,-40.59,0,*55
1485068796.19,50985,8.56,74256.8,-6.07,-40.21,-40.53,0,*55
1485068797.44,50986,8.56,74258.3,-6.07,-40.53,-40.79,0,*5B
1485068798.68,50987,8.56,74258.5,-6.09,-40.73,-40.85,0,*55
1485068799.93,50988,8.56,74256.5,-6.09,-40.59,-40.79,0,*51
1485068801.14,50989,8.56,74256.3,-6.09,-40.35,-40.73,0,*50
1485068802.4,50990,8.56,74256.8,-6.11,-40.41,-40.65,0,*55
1485068803.6,50991,8.56,74258.8,-6.09,-40.47,-40.65,0,*5B
1485068804.86,50992,8.56,74258.3,-6.09,-40.29,-40.59,0,*5F
1485068806.09,50993,8.56,74258.5,-6.09,-40.21,-40.53,0,*5C
1485068807.34,50994,8.56,74260.5,-6.09,-40.21,-40.59,0,*51
1485068808.57,50995,8.56,74256.0,-6.09,-40.53,-40.85,0,*54
1485068809.83,50996,8.56,74256.8,-6.09,-40.41,-40.79,0,*57
1485068811.06,50997,8.56,74256.3,-6.09,-40.35,-40.59,0,*57
1485068812.3,50998,8.56,74256.8,-6.09,-40.35,-40.59,0,*58
1485068813.58,50999,8.56,74258.5,-6.11,-40.59,-40.85,0,*5B
1485068814.84,51000,8.56,74256.5,-6.11,-40.79,-40.91,0,*54
1485068816.07,51001,8.5,74254.3,-6.09,-40.53,-40.79,0,*52
1485068817.3,51002,8.56,74256.8,-6.09,-40.53,-40.85,0,*52
1485068818.56,51003,8.56,74256.0,-6.11,-40.41,-40.65,0,*57
1485068819.84,51004,8.5,74254.8,-6.11,-40.29,-40.59,0,*51
1485068821.13,51005,8.56,74260.3,-6.11,-40.41,-40.59,0,*5E
1485068822.39,51006,8.56,74256.0,-6.11,-40.41,-40.65,0,*52
1485068823.65,51007,8.56,74256.0,-6.09,-40.21,-40.41,0,*5A
1485068824.86,51008,8.56,74256.3,-6.09,-40.35,-40.53,0,*53
1485068826.11,51009,8.56,74256.3,-6.09,-40.21,-40.41,0,*54
1485068827.36,51010,8.56,74258.0,-6.09,-40.21,-40.41,0,*5C
1485068828.59,51011,8.56,74254.0,-6.09,-40.21,-40.53,0,*5E
1485068829.85,51012,8.56,74256.0,-6.11,-40.29,-40.47,0,*59
1485068831.07,51013,8.56,74262.0,-6.09,-40.21,-40.35,0,*5C
1485068832.32,51014,8.56,74256.8,-6.09,-40.21,-40.41,0,*58
1485068833.58,51015,8.56,74258.5,-6.11,-40.29,-40.47,0,*5E
1485068834.83,51016,8.56,74258.3,-6.09,-40.21,-40.41,0,*5A
1485068836.11,51017,8.56,74258.3,-6.11,-40.21,-40.59,0,*5B
1485068837.37,51018,8.56,74256.3,-6.09,-40.41,-40.59,0,*5B
1485068838.61,51019,8.56,74258.0,-6.09,-40.35,-40.59,0,*59
1485068839.87,51020,8.56,74258.0,-6.09,-40.41,-40.59,0,*50
1485068841.16,51021,8.56,74256.5,-6.11,-40.29,-40.59,0,*56
1485068842.41,51022,8.56,74258.3,-6.09,-40.21,-40.59,0,*54
1485068843.68,51023,8.56,74258.3,-6.11,-40.41,-40.53,0,*50
1485068844.94,51024,8.56,74258.5,-6.09,-40.59,-40.85,0,*5C
1485068846.2,51025,8.56,74258.0,-6.09,-40.59,-40.85,0,*5D
1485068847.46,51026,8.56,74258.0,-6.11,-40.41,-40.47,0,*50
1485068848.72,51027,8.56,74256.8,-6.09,-40.41,-40.59,0,*57
1485068849.97,51028,8.56,74258.8,-6.11,-40.47,-40.79,0,*55
1485068851.24,51029,8.56,74258.5,-6.11,-40.47,-40.85,0,*57
1485068852.47,51030,8.56,74258.3,-6.09,-40.35,-40.41,0,*5B
1485068853.73,51031,8.56,74256.5,-6.11,-40.41,-40.47,0,*56
1485068854.96,51032,8.56,74256.8,-6.09,-40.21,-40.53,0,*5F
1485068856.19,51033,8.56,74258.3,-6.09,-40.35,-40.59,0,*51
1485068857.45,51034,8.56,74254.5,-6.11,-40.29,-40.65,0,*5D
1485068858.71,51035,8.56,74254.8,-6.09,-40.41,-40.79,0,*56
1485068859.96,51036,8.56,74258.8,-6.11,-40.29,-40.47,0,*5F
1485068861.22,51037,8.56,74256.8,-6.11,-40.47,-40.85,0,*58
1485068862.48,51038,8.56,74258.0,-6.09,-40.59,-40.85,0,*51
1485068863.74,51039,8.56,74258.5,-6.11,-40.47,-40.85,0,*56
1485068865.01,51040,8.56,74258.5,-6.09,-40.41,-40.59,0,*56
1485068866.27,51041,8.56,74256.3,-6.11,-40.41,-40.65,0,*51
1485068867.52,51042,8.56,74256.0,-6.11,-40.21,-40.47,0,*54
1485068868.75,51043,8.56,74258.8,-6.09,-40.35,-40.59,0,*56
1485068870.04,51044,8.56,74256.8,-6.11,-40.29,-40.59,0,*55
1485068871.24,51045,8.56,74256.0,-6.09,-40.35,-40.53,0,*5A
1485068872.51,51046,8.56,74256.5,-6.11,-40.41,-40.65,0,*56
1485068873.76,51047,8.56,74256.0,-6.11,-40.47,-40.79,0,*5C
1485068875.04,51048,8.56,74256.5,-6.11,-40.59,-40.79,0,*5C
1485068876.3,51049,8.56,74256.3,-6.09,-40.41,-40.59,0,*5F
1485068877.57,51050,8.56,74258.8,-6.11,-40.59,-41.03,0,*59
1485068878.85,51051,8.56,74254.5,-6.11,-40.59,-40.85,0,*57
1485068880.09,51052,8.56,74258.5,-6.13,-40.47,-40.85,0,*59
1485068881.32,51053,8.56,74258.3,-6.13,-40.29,-40.47,0,*5E
1485068882.58,51054,8.56,74258.8,-6.11,-40.03,-40.29,0,*5B
1485068883.84,51055,8.56,74256.0,-6.11,-40.03,-40.29,0,*5A
1485068885.11,51056,8.56,74256.3,-6.11,-40.21,-40.29,0,*59
1485068886.37,51057,8.56,74256.0,-6.11,-40.29,-40.47,0,*58
1485068887.63,51058,8.56,74256.3,-6.11,-40.09,-40.35,0,*50
1485068888.92,51059,8.56,74256.0,-6.11,-40.09,-40.21,0,*54
1485068890.2,51060,8.56,74258.3,-6.11,-40.09,-40.21,0,*5E
1485068891.44,51061,8.56,74258.3,-6.09,-40.03,-40.41,0,*5A
1485068892.69,51062,8.56,74256.3,-6.11,-40.29,-40.47,0,*5E
1485068893.95,51063,8.56,74256.3,-6.11,-40.41,-40.65,0,*51
1485068895.16,51064,8.56,74256.5,-6.09,-40.35,-40.53,0,*59
1485068896.39,51065,8.56,74258.3,-6.09,-40.21,-40.53,0,*5D
1485068897.64,51066,8.56,74260.8,-6.11,-40.47,-40.79,0,*5F
1485068898.91,51067,8.56,74258.0,-6.11,-40.59,-40.91,0,*57
1485068900.17,51068,8.56,74256.8,-6.11,-40.59,-40.91,0,*58
1485068901.41,51069,8.56,74256.3,-6.11,-40.47,-40.91,0,*56
1485068902.67,51070,8.56,74260.0,-6.11,-40.47,-40.85,0,*5B
1485068903.95,51071,8.56,74258.3,-6.11,-40.59,-40.79,0,*56
1485068905.24,51072,8.56,74254.5,-6.11,-40.59,-40.85,0,*56
1485068906.5,51073,8.56,74256.3,-6.11,-40.47,-40.85,0,*58
1485068907.76,51074,8.56,74258.3,-6.11,-40.47,-40.79,0,*5C
1485068909.04,51075,8.56,74254.3,-6.11,-40.29,-40.59,0,*57
1485068910.29,51076,8.56,74254.8,-6.11,-40.29,-40.47,0,*5B